STARLINK-34102, 63806

Orbit data source: Space-Track

STARLINK-34102, 63806 is a payload satellite owned by SpaceX/Seattle (US) in LEO that was launched on Sun, 04 May 2025 UTC via an FALCON 9 launch vehicle from the Air Force Eastern Test Range (AFETR). Payload-class satellites include a variety of spacecraft equipped with specific instruments for various scientific and technological missions. These include communications satellites like Starlink; space stations such as the ISS; scientific satellites like the Hubble; Earth observation satellites from companies like Planet Labs, Umbra, and HawkEye 360; GPS; miniature CubeSats for education and research; and military/defense satellites.

Loading next visibility...
Identifier
63806, 2025-092C
Orbit
LEO
Last TLE update
11 hours ago
Origin
Manufacturer
SpaceX/Seattle
Mission
Operational Commercial Communications
Bus & Motor
STARLINK V2MO, Unknown motor
Mass
575 kg wet, ~530 kg dry
Launch date (UTC)
2025-05-04 (2 months ago)
Launch vehicle
FALCON 9
Launch site
Air Force Eastern Test Range (AFETR)
Object type
Payload
Rocket body
Debris
Shape & HBR
Box + 1 Pan, 29 m
Radar Cross Section
41.120 m², Large (>1 m²)

Expand to show TLE details & history

TLE from 11 hours ago
0 STARLINK-34102
1 63806U 25092C   25189.16338022  .00012067  00000-0  44734-3 0  9992
2 63806  43.0018 113.8331 0001469 278.7718  81.2967 15.27577490 11261
Epoch: 2025-07-08T03:55Z
TLE epoch observation values (Epoch: 2025-07-08T03:55:16.051Z)
Latitude
-0.00002°
Longitude
128.6539°
Altitude
482.68 km
Speed
7.626 km/s
True Right ascension
07h 35m 19s
True Declination
0° 00' 00"
Sunlit
Object was in daylight at epoch
Visualization orbit readout
Latitude
-0.48475°
Longitude
125.55173°
Altitude
482.647 km
Speed
7.626 km/s
Apparent Right ascension
10h 13m 46s
Apparent Declination
-32° 08' 23"
Sunlit
Object is in daylight
Visualization observer readout
Local Sidereal Time
03:00:57
Azimuth
106.502° ESE
Elevation
-32.973°
Doppler factor
1
Orbital elements
Apogee altitude
486.01 km
Perigee altitude
483.993 km
Semi-major axis
6,863.138 km
Eccentricity
0.00015
Inclination
43.0018°
RAAN
113.8331°
Arg. of periapsis
278.7718°
True anomaly
Unknown
Mean anomaly
81.2967°
Eccentric anomaly
Unknown
Mean motion
3.81732 °/min
Orbital period
94.31 mins
BSTAR
0.00044734
Loading maneuver chart data...
Loading SW <> Apogee altitude chart data...
Loading historical data...
Loading historical data...
Loading historical data...
Loading historical data...
Loading historical data...
Loading historical data...
Loading historical data...

STARLINK-34102 Visibility forecast

Observer location: undefined°, undefined°

Span
Click to sort rows by Start time (UTC) header in descending order
Start Az.
Max El. time (UTC)
Max El. Az.
Max El.
End time (UTC)
End Az.
4 mins2025-07-08 21:22:10.464Z174.331° S2025-07-08 21:24:10.464Z137.837° SSE15.707°2025-07-08 21:26:10.464Z104.526° ESE
5 mins2025-07-08 23:00:10.464Z238.539° WSW2025-07-08 23:02:10.464Z194.523° SSW42.762°2025-07-08 23:05:10.464Z75.841° E
5 mins2025-07-09 00:39:10.464Z284.063° WNW2025-07-09 00:41:10.464Z332.978° NNW37.819°2025-07-09 00:44:10.464Z68.966° E
6 mins2025-07-09 02:18:10.464Z292.399° WNW2025-07-09 02:21:10.464Z60.643° ENE40.938°2025-07-09 02:24:10.464Z97.019° ESE
5 mins2025-07-09 03:57:10.464Z268.406° W2025-07-09 03:59:10.464Z224.08° SW29.737°2025-07-09 04:02:10.464Z148.593° SSE
|